Weather in Markovo

Russia / Ivanovo Oblast     56°47′35″N   41°21′16″E
temp.,
°C
wind,
m/s
gust,
m/s
humid.,
%
clouds,
%
prec.,
mm/h
press.,
hPa
HPBL,
m
4 march, thu
thu400:00−1wsw41092100 0.1 1003756
03:00−2wsw51296100 0.3 1000690
06:000wsw61398100 1.7 996923
09:00+1w61489100 2.6 9941250
12:000wnw6117659 0.4 9951417
15:00−1nw598061 0.6 9971216
18:00−5wnw388881 0.1 999189
21:00−8nw259240 0.1 1000106
5 march, fri
fri500:00−10nw22940 0.0 100121
03:00−11wnw22940 0.0 100321
06:00−12wnw22940 0.0 100423
09:00−9w24920 0.0 1005198
12:00−5w358963 0.1 1005502
15:00−3wnw368081 0.4 1007952
18:00−7nw2591100 0.4 1009126
21:00−11nw4108684 0.4 1012342
6 march, sat
sat600:00−15nw23910 0.0 101465
03:00−16wnw22920 0.0 101623
06:00−16wnw22940 0.0 101620
09:00−13w238924 0.0 1016177
12:00−9wnw2485100 0.1 1016721
15:00−8nw3479100 0.2 1015897
18:00−12wnw2291100 0.1 101422
21:00−14wsw239364 0.1 101530
7 march, sun
sun700:00−15ssw36930 0.0 1012111
03:00−13ssw411910 0.0 1009305
06:00−11ssw6158788 0.0 1005553
09:00−9ssw6139294 0.8 1001742
12:00−5ssw71391100 1.2 9971112
15:00−4ssw61293100 3.1 9931060
18:00−6wnw81489100 2.1 9921039
21:00−8w51379100 2.2 995620
8 march, mon
mon800:00−12sw4118536 0.0 995291
03:00−11ssw4108860 0.3 995339
06:00−8ssw41093100 0.2 994522
09:00−8ssw4792100 0.6 994487
12:00−5sw1190100 0.3 995344
15:00−5nw5892100 1.4 997703
18:00−10nw51288100 0.4 1001517
21:00−11wnw3109493 0.4 1005358